Flag for Brazil Weather past 2 weeks in Florianópolis, Santa Catarina, Brazil

Now
64 °F

Passing clouds.


Feels Like: 64 °F
Forecast: 64 / 77 °F
Wind: 5 mph from Northwest

Location: Florianopolis Aeroporto

Current Time: Oct 23, 2014 at 8:08:40 AM

Latest Report: Oct 23, 2014 at 7:00 AM


Visibility: N/A

Pressure: 30.15 "Hg

Humidity: 83%

Dew point: 59 °F

Location of FlorianópolisLocation

Historic Weather in Florianópolis — Graph

°F

Florianópolis temperature yesterday

Maximum temperature yesterday: 75 °F (at 1:00 PM)
Minimum temperature yesterday: 64 °F (at 1:00 AM)
Average temperature yesterday: 69 °F

Past Weeks' High & Low Weather Summary

 TemperatureHumidityPressure
High84 °F (Oct 10, 2:00 PM)100% (Oct 13, 10:00 PM)30.24 "Hg (Oct 13, 10:00 PM)
Low32 °F (Oct 13, 11:00 PM)29% (Oct 20, 11:00 AM)29.71 "Hg (Oct 19, 5:00 AM)
Average71 °F76%30.00 "Hg
* Reported Oct 8 6:00 AM — Oct 23 7:00 AM, Florianópolis, Weather by CustomWeather, © 2014

Note: Actual official high and low records may vary slightly from our data, if they occured in-between our weather recording intervals... More about our weather records

Advertising

Florianópolis weather history for previous 24 hours

 ConditionsComfort  
Time TempWeatherWind HumidityBarometerVisibility
7:00 AM
Oct 23
64 °FPassing clouds.5 mph83%30.15 "HgN/A
6:00 AM64 °FClear.6 mph83%30.12 "Hg10 mi
5:00 AM63 °FPassing clouds.No wind88%30.12 "HgN/A
4:00 AM64 °FClear.3 mph83%30.12 "Hg10 mi
3:00 AM63 °FPassing clouds.6 mph83%30.18 "HgN/A
2:00 AM64 °FPassing clouds.3 mph78%30.18 "HgN/A
1:00 AM64 °FPassing clouds.5 mph78%30.18 "HgN/A
12:00 AM66 °FPassing clouds.5 mph73%30.21 "HgN/A
11:00 PM
Oct 22
68 °FPassing clouds.3 mph69%30.21 "HgN/A
10:00 PM68 °FPassing clouds.5 mph69%30.21 "HgN/A
9:00 PM68 °FPassing clouds.6 mph69%30.21 "HgN/A
8:00 PM70 °FPassing clouds.6 mph64%30.18 "HgN/A
7:00 PM70 °FPassing clouds.9 mph64%30.18 "HgN/A
6:00 PM73 °FPassing clouds.9 mph57%30.15 "HgN/A
5:00 PM73 °FPassing clouds.12 mph57%30.15 "HgN/A
4:00 PM73 °FScattered clouds.13 mph57%30.15 "HgN/A
3:00 PM75 °FPassing clouds.8 mph54%30.18 "HgN/A
2:00 PM73 °FScattered clouds.12 mph53%30.21 "HgN/A
1:00 PM75 °FScattered clouds.7 mph54%30.21 "HgN/A
12:00 PM72 °FScattered clouds.6 mph61%30.24 "HgN/A
11:00 AM72 °FScattered clouds.8 mph61%30.24 "HgN/A
10:00 AM70 °FScattered clouds.2 mph64%30.24 "HgN/A
9:00 AM68 °FScattered clouds.3 mph73%30.24 "HgN/A
8:00 AM64 °FScattered clouds.6 mph83%30.21 "HgN/A
Weather by CustomWeather, © 2014

See weather overviewHow to use our weather pages